Погода в Каэмшехре

Иран     36°28′10″N   52°21′50″E
темп.,
°C
ветер,
м/с
пор.,
м/с
влажн.,
%
обл.,
%
осадки,
мм/ч
давл.,
гПа
погр.,
м
8 марта, пн
пн800:30+8св3487100 0.3 1020412
03:30+8св3486100 0.3 1019397
06:30+8в2485100 0.1 1020400
09:30+10в337484 0.1 1019608
12:30+13св446242 0.0 1016897
15:30+12ссв446846 0.0 1014635
18:30+9всв2378100 0.0 1013247
21:30+8св1180100 0.0 101248
9 марта, вт
вт900:30+7вюв118133 0.0 101132
03:30+6зюз118517 0.0 101235
06:30+6зюз33899 0.0 101391
09:30+10зсз567811 0.0 1014581
12:30+12сз336441 0.0 1014801
15:30+11с326854 0.0 1013588
18:30+9ссв1277100 0.0 1013277
21:30+9сз1180100 0.0 1015222
10 марта, ср
ср1000:30+9сз118292 0.1 1016229
03:30+8св128996 0.6 1017271
06:30+8в2391100 0.6 1018295
09:30+9в3486100 0.7 1019354
12:30+13св336657 0.0 1019830
15:30+11ссв227065 0.1 1019609
18:30+9всв347851 0.0 1020335
21:30+8вюв238045 0.0 101997
11 марта, чт
чт1100:30+7вюв238416 0.0 101780
03:30+6вюв118658 0.0 101636
06:30+6вюв128679 0.0 101441
09:30+10с226583 0.0 1013289
12:30+12ссз3263100 0.0 1011411
15:30+12ссз3264100 0.1 1008453
18:30+9сз2280100 0.3 1005113
21:30+9з3681100 0.4 1005235
12 марта, пт
пт1200:30+8в2385100 0.1 100299
03:30+7зсз6991100 0.4 1001438
06:30+8з6891100 0.1 1002440
09:30+6зсз111688100 2.3 1006819
12:30+8зсз131771100 2.4 10081273
15:30+5зсз111578100 5.6 10101076
18:30+3зсз81195100 6.5 1015680
21:30+2сз81294100 13.4 1018718